📊 Raw Sensor Data
Showing records 35926 to 35950 of 84,887 total
| ID | Distance (ft) | Battery V | Battery A | Int Temp (°F) | Int Humid (%) | Ext Temp (°F) | Solar V | RSSI | SNR | Time Stamp |
|---|---|---|---|---|---|---|---|---|---|---|
| 48974 | 15.3 | 3.90 | 0 | 70 | 43 | 72 | 5.10 | -70 | 8 | 08/12/2025 09:15 AM |
| 48973 | 15.3 | 3.90 | 0 | 69 | 43 | 72 | 5.10 | -71 | 8 | 08/12/2025 09:00 AM |
| 48972 | 15.2 | 4.11 | 0 | 67 | 43 | 69 | 5.10 | -70 | 8 | 08/12/2025 08:45 AM |
| 48971 | 15.2 | 3.90 | 0 | 66 | 43 | 69 | 5.10 | -70 | 7 | 08/12/2025 08:30 AM |
| 48970 | 15.2 | 3.90 | 0 | 65 | 43 | 70 | 5.10 | -70 | 8 | 08/12/2025 08:15 AM |
| 48969 | 15.2 | 3.90 | 0 | 64 | 43 | 68 | 5.10 | -71 | 8 | 08/12/2025 08:00 AM |
| 48968 | 15.2 | 4.03 | 37 | 62 | 43 | 67 | 4.50 | -70 | 8 | 08/12/2025 07:45 AM |
| 48967 | 15.1 | 3.92 | 0 | 61 | 42 | 65 | 4.50 | -70 | 8 | 08/12/2025 07:30 AM |
| 48966 | 15.1 | 3.97 | 0 | 59 | 43 | 64 | 4.50 | -70 | 8 | 08/12/2025 07:15 AM |
| 48965 | 15.0 | 3.83 | 0 | 58 | 43 | 63 | 4.50 | -71 | 8 | 08/12/2025 07:00 AM |
| 48964 | 15.0 | 3.91 | -9 | 56 | 43 | 60 | 4.50 | -71 | 8 | 08/12/2025 06:45 AM |
| 48963 | 15.0 | 3.79 | -8 | 56 | 44 | 57 | 4.50 | -70 | 8 | 08/12/2025 06:30 AM |
| 48962 | 15.0 | 3.88 | -9 | 55 | 44 | 57 | 3.10 | -70 | 8 | 08/12/2025 06:15 AM |
| 48961 | 15.0 | 3.90 | -5 | 55 | 44 | 57 | 0.90 | -71 | 8 | 08/12/2025 06:00 AM |
| 48960 | 15.0 | 3.80 | -5 | 56 | 44 | 56 | 0.00 | -70 | 8 | 08/12/2025 05:45 AM |
| 48959 | 15.0 | 3.80 | -5 | 56 | 44 | 57 | 0.00 | -70 | 8 | 08/12/2025 05:30 AM |
| 48958 | 15.0 | 3.80 | -5 | 56 | 44 | 57 | 0.00 | -70 | 8 | 08/12/2025 05:00 AM |
| 48957 | 15.0 | 3.80 | -5 | 56 | 44 | 57 | 0.00 | -70 | 8 | 08/12/2025 04:45 AM |
| 48956 | 15.0 | 3.90 | -5 | 57 | 44 | 58 | 0.00 | -70 | 8 | 08/12/2025 04:30 AM |
| 48955 | 15.0 | 3.90 | -5 | 57 | 44 | 57 | 0.00 | -71 | 6 | 08/12/2025 04:15 AM |
| 48954 | 15.0 | 3.90 | -5 | 57 | 44 | 58 | 0.00 | -69 | 8 | 08/12/2025 04:00 AM |
| 48953 | 15.0 | 3.80 | -5 | 57 | 44 | 58 | 0.00 | -70 | 8 | 08/12/2025 03:45 AM |
| 48952 | 15.0 | 3.80 | -5 | 58 | 44 | 59 | 0.00 | -70 | 8 | 08/12/2025 03:30 AM |
| 48951 | 15.0 | 3.80 | -5 | 58 | 44 | 59 | 0.00 | -69 | 8 | 08/12/2025 03:15 AM |
| 48950 | 15.0 | 3.81 | -5 | 58 | 44 | 59 | 0.00 | -69 | 8 | 08/12/2025 03:00 AM |